contact:dominique.lefevre@mio.osupytheas.fr, maurice.libes@osupytheas.fr, didier.mallarino@osupytheas.fr
Project:EMSO http://www.emso-fr.org/EMSO-France
Depth: 2436.0 m
Title:EMSO Ligure Ouest : Data MII capteur AQUADOPP
Date,Latitude,Longitude,X_East,Y_North,Z_Up,Amplitude_X,Amplitude_Y,Amplitude_Z,Batterie,SoundSpeed,Heading,Pitch,Roll,Pressure,TIS,Speed,Direction
, degrees North, degrees East, m.s-1, m.s-1,m.s-1, 1, 1, 1, Volt, m.s-1, degree, degree, degree, dbar, degree_C, m.s-1, degree
2022-12-04T00:04:03,42.805,6.029,-0.035,0.026,-0.026,104.0,104.0,103.0,13.4,1505.2,324.5,-0.8,1.8,2471.121,13.28,0.043,306.6
2022-12-04T00:07:03,42.805,6.029,-0.027,0.027,-0.022,104.0,104.0,103.0,13.3,1505.2,330.1,-0.8,1.8,2471.131,13.28,0.038,315.0
2022-12-04T00:10:03,42.805,6.029,-0.042,0.018,-0.018,104.0,103.0,103.0,13.4,1505.2,334.1,-0.7,1.8,2471.105,13.28,0.045,293.2
2022-12-04T00:13:03,42.805,6.029,-0.044,0.013,-0.029,104.0,104.0,103.0,13.4,1505.2,320.7,-0.8,1.8,2471.071,13.29,0.045,286.5
2022-12-04T00:16:03,42.805,6.029,-0.079,0.011,-0.05,104.0,102.0,103.0,13.4,1505.2,323.6,-0.8,1.8,2471.084,13.29,0.079,277.9
2022-12-04T00:19:03,42.805,6.029,-0.045,0.024,-0.031,103.0,104.0,103.0,13.4,1505.2,331.5,-0.8,1.8,2471.12,13.29,0.051,298.1
2022-12-04T00:22:03,42.805,6.029,-0.062,0.015,-0.039,104.0,105.0,103.0,13.3,1505.2,327.8,-0.8,1.8,2471.048,13.29,0.063,283.6
2022-12-04T00:25:03,42.805,6.029,-0.033,0.029,-0.002,103.0,103.0,103.0,13.3,1505.2,333.0,-0.8,1.8,2471.114,13.29,0.043,311.3
2022-12-04T00:28:03,42.805,6.029,-0.067,0.051,-0.064,104.0,103.0,103.0,13.3,1505.2,332.6,-0.8,1.8,2471.071,13.29,0.084,307.3
2022-12-04T00:31:03,42.805,6.029,-0.05,0.016,-0.035,104.0,104.0,102.0,13.4,1505.2,327.8,-0.8,1.8,2471.094,13.29,0.052,287.7
2022-12-04T00:34:03,42.805,6.029,-0.057,-0.01,-0.027,104.0,104.0,102.0,13.4,1505.2,321.2,-0.8,1.8,2471.071,13.29,0.057,260.1
2022-12-04T00:37:03,42.805,6.029,-0.059,0.021,-0.031,103.0,103.0,103.0,13.4,1505.2,325.7,-0.8,1.8,2471.083,13.29,0.062,289.6
2022-12-04T00:40:03,42.805,6.029,-0.07,0.022,-0.087,103.0,104.0,103.0,13.4,1505.2,333.8,-0.8,1.8,2471.08,13.29,0.073,287.4
2022-12-04T00:43:03,42.805,6.029,-0.034,0.0,-0.02,104.0,103.0,103.0,13.4,1505.2,318.4,-0.8,1.8,2471.097,13.29,0.034,270.0
2022-12-04T00:46:03,42.805,6.029,-0.017,0.024,-0.055,105.0,104.0,102.0,13.3,1505.2,333.8,-0.7,1.8,2471.112,13.29,0.029,324.7
2022-12-04T00:49:03,42.805,6.029,-0.048,0.028,-0.049,104.0,102.0,102.0,13.4,1505.2,328.4,-0.8,1.8,2471.081,13.29,0.055,300.3
2022-12-04T00:52:03,42.805,6.029,-0.044,0.036,-0.006,106.0,104.0,102.0,13.3,1505.2,330.6,-0.8,1.8,2471.102,13.29,0.056,309.3
2022-12-04T00:55:03,42.805,6.029,-0.051,0.033,-0.021,104.0,104.0,102.0,13.4,1505.2,321.9,-0.8,1.8,2471.1,13.29,0.06,302.9
2022-12-04T00:58:03,42.805,6.029,-0.032,0.035,-0.008,104.0,103.0,102.0,13.3,1505.2,334.5,-0.8,1.8,2471.109,13.29,0.047,317.6
2022-12-04T01:04:03,42.805,6.029,-0.068,0.043,-0.047,106.0,103.0,104.0,13.4,1505.2,328.9,-0.7,1.8,2471.156,13.28,0.08,302.3
2022-12-04T01:07:03,42.805,6.029,-0.055,0.019,-0.013,106.0,105.0,103.0,13.4,1505.2,329.7,-0.8,1.8,2471.135,13.28,0.058,289.1
2022-12-04T01:10:03,42.805,6.029,-0.059,0.02,-0.043,105.0,103.0,102.0,13.4,1505.2,322.9,-0.7,1.8,2471.175,13.28,0.062,288.7
2022-12-04T01:13:03,42.805,6.029,-0.058,0.015,0.001,103.0,103.0,103.0,13.3,1505.2,325.4,-0.8,1.8,2471.142,13.29,0.059,284.5
2022-12-04T01:16:03,42.805,6.029,-0.049,0.016,-0.017,103.0,103.0,103.0,13.3,1505.2,320.1,-0.8,1.8,2471.138,13.29,0.051,288.1
2022-12-04T01:19:03,42.805,6.029,-0.053,0.021,-0.043,103.0,104.0,102.0,13.3,1505.2,323.8,-0.7,1.9,2471.156,13.29,0.057,291.6
2022-12-04T01:22:03,42.805,6.029,-0.046,0.03,-0.008,104.0,104.0,102.0,13.4,1505.2,324.1,-0.7,1.8,2471.137,13.29,0.054,303.1
2022-12-04T01:25:03,42.805,6.029,-0.036,0.003,-0.012,105.0,102.0,103.0,13.4,1505.2,320.1,-0.7,1.8,2471.08,13.29,0.036,274.8
2022-12-04T01:28:03,42.805,6.029,-0.048,0.026,-0.046,105.0,103.0,102.0,13.4,1505.2,331.3,-0.8,1.8,2471.12,13.29,0.054,298.4
2022-12-04T01:31:03,42.805,6.029,-0.074,0.024,-0.056,103.0,103.0,102.0,13.4,1505.2,317.8,-0.8,1.8,2471.093,13.29,0.077,288.0
2022-12-04T01:34:03,42.805,6.029,-0.048,0.001,-0.023,103.0,103.0,104.0,13.3,1505.2,315.4,-0.7,1.8,2471.134,13.29,0.048,271.2
2022-12-04T01:37:03,42.805,6.029,-0.055,0.009,-0.012,103.0,103.0,102.0,13.3,1505.2,325.0,-0.8,1.8,2471.105,13.29,0.055,279.3
2022-12-04T01:40:03,42.805,6.029,-0.046,0.032,-0.021,105.0,103.0,103.0,13.4,1505.2,331.8,-0.7,1.8,2471.144,13.29,0.056,304.8
2022-12-04T01:43:03,42.805,6.029,-0.041,0.011,-0.023,107.0,103.0,102.0,13.3,1505.2,327.5,-0.8,1.8,2471.161,13.29,0.042,285.0
2022-12-04T01:46:03,42.805,6.029,-0.042,0.022,-0.023,103.0,104.0,103.0,13.4,1505.2,329.8,-0.8,1.8,2471.178,13.29,0.047,297.6
2022-12-04T01:49:03,42.805,6.029,-0.051,0.007,-0.034,104.0,102.0,102.0,13.4,1505.2,320.0,-0.7,1.8,2471.136,13.29,0.051,277.8
2022-12-04T01:52:03,42.805,6.029,-0.064,0.017,-0.036,103.0,104.0,101.0,13.4,1505.2,321.9,-0.7,1.8,2471.157,13.29,0.066,284.9
2022-12-04T01:55:03,42.805,6.029,-0.042,0.052,-0.033,104.0,103.0,102.0,13.4,1505.2,330.4,-0.8,1.8,2471.118,13.29,0.066,321.1
2022-12-04T01:58:03,42.805,6.029,-0.043,0.028,-0.026,103.0,103.0,102.0,13.4,1505.2,337.3,-0.8,1.8,2471.134,13.29,0.051,303.1
2022-12-04T02:04:03,42.805,6.029,-0.031,0.034,0.0,104.0,103.0,102.0,13.3,1505.2,323.9,-0.8,1.8,2471.173,13.28,0.046,317.6
2022-12-04T02:07:03,42.805,6.029,-0.046,0.015,-0.019,103.0,103.0,102.0,13.3,1505.2,316.4,-0.7,1.8,2471.192,13.28,0.048,288.1
2022-12-04T02:10:03,42.805,6.029,-0.05,0.013,-0.026,103.0,103.0,104.0,13.4,1505.2,320.9,-0.8,1.8,2471.173,13.28,0.051,284.6
2022-12-04T02:13:03,42.805,6.029,-0.032,0.022,0.01,104.0,103.0,102.0,13.3,1505.2,331.0,-0.8,1.8,2471.196,13.29,0.038,304.5
2022-12-04T02:16:03,42.805,6.029,-0.05,0.03,-0.046,103.0,105.0,102.0,13.4,1505.2,318.4,-0.8,1.8,2471.265,13.29,0.058,301.0
2022-12-04T02:19:03,42.805,6.029,-0.048,0.007,-0.035,103.0,104.0,102.0,13.4,1505.2,324.1,-0.8,1.8,2471.186,13.29,0.048,278.3
2022-12-04T02:22:03,42.805,6.029,-0.044,0.009,-0.038,103.0,103.0,103.0,13.3,1505.2,332.7,-0.8,1.8,2471.19,13.29,0.044,281.6
2022-12-04T02:25:03,42.805,6.029,-0.051,0.02,-0.062,104.0,104.0,102.0,13.3,1505.2,323.4,-0.8,1.8,2471.163,13.29,0.054,291.4
2022-12-04T02:28:03,42.805,6.029,-0.068,0.032,-0.006,104.0,103.0,101.0,13.4,1505.2,329.6,-0.8,1.9,2471.161,13.29,0.075,295.2
2022-12-04T02:31:03,42.805,6.029,-0.04,0.02,-0.009,104.0,103.0,102.0,13.4,1505.2,326.7,-0.7,1.8,2471.202,13.29,0.044,296.6
2022-12-04T02:34:03,42.805,6.029,-0.039,0.028,-0.045,105.0,104.0,101.0,13.4,1505.2,335.1,-0.7,1.8,2471.176,13.29,0.048,305.7
2022-12-04T02:37:03,42.805,6.029,-0.067,0.028,-0.042,105.0,103.0,101.0,13.4,1505.2,327.6,-0.8,1.8,2471.192,13.29,0.072,292.7
2022-12-04T02:40:03,42.805,6.029,-0.039,0.007,-0.047,104.0,102.0,101.0,13.4,1505.2,323.9,-0.8,1.8,2471.176,13.29,0.039,280.2
2022-12-04T02:43:03,42.805,6.029,-0.033,0.017,-0.054,104.0,103.0,103.0,13.4,1505.2,322.8,-0.7,1.8,2471.166,13.29,0.037,297.3
2022-12-04T02:46:03,42.805,6.029,-0.041,0.032,-0.018,104.0,104.0,102.0,13.4,1505.2,329.7,-0.8,1.8,2471.183,13.29,0.052,308.0
2022-12-04T02:49:03,42.805,6.029,-0.026,0.014,-0.046,104.0,103.0,102.0,13.4,1505.2,331.3,-0.7,1.8,2471.157,13.29,0.029,298.3
2022-12-04T02:52:03,42.805,6.029,-0.043,0.034,-0.008,104.0,103.0,102.0,13.4,1505.2,330.2,-0.7,1.8,2471.174,13.29,0.054,308.3
2022-12-04T02:55:03,42.805,6.029,-0.037,0.018,-0.024,104.0,104.0,102.0,13.3,1505.2,323.1,-0.8,1.9,2471.175,13.29,0.041,295.9
2022-12-04T02:58:03,42.805,6.029,-0.049,0.031,-0.031,104.0,103.0,103.0,13.4,1505.2,321.0,-0.8,1.8,2471.178,13.29,0.057,302.3
2022-12-04T03:04:03,42.805,6.029,-0.038,0.027,0.0,105.0,103.0,104.0,13.3,1505.2,320.4,-0.7,1.8,2471.222,13.28,0.046,305.4
2022-12-04T03:07:03,42.805,6.029,-0.057,0.027,-0.026,104.0,103.0,103.0,13.3,1505.2,320.1,-0.7,1.8,2471.246,13.28,0.063,295.3
2022-12-04T03:10:03,42.805,6.029,-0.051,0.025,-0.039,104.0,103.0,102.0,13.3,1505.2,319.6,-0.7,1.8,2471.203,13.28,0.056,296.1
2022-12-04T03:13:03,42.805,6.029,-0.058,0.007,-0.054,104.0,103.0,102.0,13.3,1505.2,325.2,-0.8,1.8,2471.2,13.29,0.058,276.9
2022-12-04T03:16:03,42.805,6.029,-0.051,0.013,-0.021,102.0,105.0,102.0,13.3,1505.2,333.8,-0.8,1.8,2471.251,13.29,0.052,284.3
2022-12-04T03:19:03,42.805,6.029,-0.062,0.013,-0.03,103.0,103.0,102.0,13.3,1505.2,319.6,-0.8,1.8,2471.206,13.29,0.063,281.8
2022-12-04T03:22:03,42.805,6.029,-0.068,0.006,-0.022,105.0,103.0,102.0,13.4,1505.2,318.6,-0.7,1.8,2471.185,13.29,0.068,275.0
2022-12-04T03:25:03,42.805,6.029,-0.04,0.022,-0.002,103.0,103.0,102.0,13.4,1505.2,317.8,-0.8,1.8,2471.207,13.29,0.045,298.8
2022-12-04T03:28:03,42.805,6.029,-0.063,0.031,-0.016,104.0,103.0,102.0,13.4,1505.2,335.4,-0.7,1.8,2471.195,13.29,0.07,296.2
2022-12-04T03:31:03,42.805,6.029,-0.063,0.0,-0.045,103.0,103.0,102.0,13.4,1505.2,322.1,-0.7,1.8,2471.187,13.29,0.062,270.0
2022-12-04T03:34:03,42.805,6.029,-0.042,0.019,-0.011,105.0,104.0,102.0,13.3,1505.2,328.4,-0.7,1.9,2471.192,13.29,0.046,294.3
2022-12-04T03:37:03,42.805,6.029,-0.038,-0.003,-0.029,103.0,103.0,102.0,13.4,1505.2,317.3,-0.8,1.8,2471.186,13.29,0.038,265.5
2022-12-04T03:40:03,42.805,6.029,-0.052,0.013,-0.032,104.0,104.0,102.0,13.3,1505.2,328.0,-0.8,1.8,2471.215,13.29,0.053,284.0
2022-12-04T03:43:03,42.805,6.029,-0.071,0.013,-0.041,104.0,102.0,102.0,13.4,1505.2,321.5,-0.8,1.8,2471.207,13.29,0.072,280.4
2022-12-04T03:46:03,42.805,6.029,-0.058,0.023,-0.04,104.0,101.0,102.0,13.3,1505.2,322.5,-0.7,1.8,2471.181,13.29,0.062,291.6
2022-12-04T03:49:03,42.805,6.029,-0.029,0.011,-0.02,103.0,102.0,102.0,13.4,1505.2,321.3,-0.7,1.8,2471.2,13.29,0.031,290.8
2022-12-04T03:52:03,42.805,6.029,-0.059,0.012,-0.033,103.0,102.0,102.0,13.4,1505.2,319.2,-0.8,1.8,2471.18,13.29,0.06,281.5
2022-12-04T03:55:03,42.805,6.029,-0.073,0.014,-0.054,103.0,103.0,102.0,13.3,1505.2,322.5,-0.8,1.8,2471.213,13.29,0.074,280.9
2022-12-04T03:58:03,42.805,6.029,-0.065,0.016,-0.018,103.0,102.0,102.0,13.4,1505.2,325.1,-0.8,1.8,2471.22,13.29,0.066,283.8
2022-12-04T04:04:04,42.805,6.029,-0.083,0.004,-0.044,102.0,102.0,102.0,13.3,1505.2,323.5,-0.8,1.8,2471.221,13.28,0.083,272.8
2022-12-04T04:07:03,42.805,6.029,-0.071,0.053,-0.024,103.0,102.0,102.0,13.4,1505.2,333.8,-0.7,1.8,2471.274,13.28,0.088,306.7
2022-12-04T04:10:03,42.805,6.029,-0.05,0.023,-0.046,102.0,102.0,101.0,13.3,1505.2,330.2,-0.7,1.8,2471.25,13.28,0.055,294.7
2022-12-04T04:13:03,42.805,6.029,-0.025,0.012,-0.014,103.0,102.0,101.0,13.4,1505.2,320.0,-0.8,1.8,2471.196,13.28,0.027,295.6
2022-12-04T04:16:03,42.805,6.029,-0.054,0.033,-0.006,103.0,102.0,101.0,13.3,1505.2,329.6,-0.8,1.8,2471.233,13.29,0.063,301.4
2022-12-04T04:19:03,42.805,6.029,-0.041,0.013,-0.033,101.0,102.0,101.0,13.3,1505.2,315.4,-0.8,1.8,2471.178,13.29,0.043,287.6
2022-12-04T04:22:03,42.805,6.029,-0.04,0.024,-0.029,103.0,103.0,100.0,13.3,1505.2,320.5,-0.7,1.8,2471.225,13.29,0.046,301.0
2022-12-04T04:25:03,42.805,6.029,-0.053,0.024,-0.043,102.0,101.0,102.0,13.3,1505.2,325.2,-0.7,1.8,2471.237,13.29,0.058,294.4
2022-12-04T04:28:03,42.805,6.029,-0.086,0.019,-0.069,102.0,101.0,100.0,13.3,1505.2,327.4,-0.7,1.8,2471.192,13.29,0.088,282.5
2022-12-04T04:31:03,42.805,6.029,-0.061,0.018,-0.046,101.0,101.0,102.0,13.3,1505.2,328.0,-0.8,1.8,2471.227,13.29,0.063,286.4
2022-12-04T04:34:03,42.805,6.029,-0.032,0.023,-0.036,100.0,102.0,102.0,13.4,1505.2,320.8,-0.8,1.8,2471.224,13.29,0.039,305.7
2022-12-04T04:37:03,42.805,6.029,-0.071,0.006,-0.042,101.0,103.0,102.0,13.3,1505.2,318.8,-0.7,1.8,2471.222,13.29,0.071,274.8
2022-12-04T04:40:03,42.805,6.029,-0.046,0.022,-0.064,102.0,101.0,101.0,13.4,1505.2,334.1,-0.8,1.8,2471.198,13.29,0.05,295.6
2022-12-04T04:43:03,42.805,6.029,-0.076,0.02,-0.036,103.0,101.0,100.0,13.4,1505.2,322.8,-0.8,1.8,2471.151,13.29,0.078,284.7
2022-12-04T04:46:03,42.805,6.029,-0.032,0.009,-0.018,102.0,102.0,101.0,13.4,1505.2,323.4,-0.8,1.8,2471.193,13.29,0.033,285.7
2022-12-04T04:49:03,42.805,6.029,-0.071,0.031,-0.009,102.0,101.0,101.0,13.4,1505.2,318.6,-0.8,1.8,2471.199,13.29,0.077,293.6
2022-12-04T04:52:03,42.805,6.029,-0.061,0.049,0.006,101.0,101.0,102.0,13.4,1505.2,329.4,-0.8,1.8,2471.19,13.29,0.078,308.8
2022-12-04T04:55:03,42.805,6.029,-0.088,0.042,-0.047,101.0,102.0,102.0,13.4,1505.2,320.7,-0.8,1.8,2471.176,13.29,0.097,295.5
2022-12-04T04:58:03,42.805,6.029,-0.069,0.035,-0.002,101.0,102.0,101.0,13.3,1505.2,319.6,-0.8,1.8,2471.211,13.29,0.077,296.9
2022-12-04T05:04:03,42.805,6.029,-0.065,0.029,-0.065,102.0,102.0,101.0,13.3,1505.2,332.0,-0.8,1.9,2471.259,13.28,0.071,294.0
2022-12-04T05:07:03,42.805,6.029,-0.072,0.019,-0.029,103.0,100.0,101.0,13.4,1505.2,329.1,-0.8,1.8,2471.195,13.28,0.074,284.8
2022-12-04T05:10:03,42.805,6.029,-0.059,0.021,-0.058,102.0,101.0,101.0,13.3,1505.2,321.0,-0.8,1.8,2471.231,13.28,0.062,289.6
2022-12-04T05:13:03,42.805,6.029,-0.039,0.037,0.008,102.0,102.0,100.0,13.3,1505.2,323.7,-0.7,1.9,2471.202,13.28,0.053,313.5
2022-12-04T05:16:03,42.805,6.029,-0.038,0.039,-0.029,103.0,101.0,101.0,13.4,1505.2,336.5,-0.8,1.8,2471.221,13.28,0.054,315.7
2022-12-04T05:19:03,42.805,6.029,-0.045,0.024,-0.039,102.0,103.0,101.0,13.3,1505.2,321.1,-0.8,1.9,2471.214,13.29,0.051,298.1
2022-12-04T05:22:03,42.805,6.029,-0.063,0.03,-0.06,101.0,101.0,102.0,13.4,1505.2,328.0,-0.8,1.8,2471.125,13.29,0.069,295.5
2022-12-04T05:25:03,42.805,6.029,-0.054,0.02,-0.051,102.0,102.0,101.0,13.4,1505.2,332.1,-0.8,1.8,2471.156,13.29,0.057,290.3
2022-12-04T05:28:03,42.805,6.029,-0.059,0.039,-0.01,103.0,101.0,100.0,13.4,1505.2,331.8,-0.8,1.8,2471.203,13.29,0.07,303.5
2022-12-04T05:31:03,42.805,6.029,-0.061,0.026,-0.054,102.0,102.0,100.0,13.4,1505.2,329.2,-0.8,1.8,2471.185,13.29,0.066,293.1
2022-12-04T05:34:03,42.805,6.029,-0.052,0.035,-0.009,101.0,104.0,102.0,13.4,1505.2,331.5,-0.8,1.8,2471.208,13.29,0.062,303.9
2022-12-04T05:37:03,42.805,6.029,-0.048,0.058,0.003,101.0,102.0,101.0,13.4,1505.2,328.7,-0.8,1.8,2471.201,13.29,0.075,320.4
2022-12-04T05:40:03,42.805,6.029,-0.05,0.035,-0.011,102.0,102.0,101.0,13.4,1505.2,322.6,-0.8,1.8,2471.162,13.29,0.061,305.0
2022-12-04T05:43:03,42.805,6.029,-0.069,0.021,-0.053,101.0,101.0,101.0,13.4,1505.2,330.7,-0.7,1.8,2471.182,13.29,0.072,286.9
2022-12-04T05:46:03,42.805,6.029,-0.075,0.033,-0.029,103.0,102.0,102.0,13.4,1505.2,317.3,-0.7,1.8,2471.193,13.29,0.081,293.7
2022-12-04T05:49:03,42.805,6.029,-0.061,0.021,-0.034,102.0,102.0,101.0,13.4,1505.2,320.4,-0.8,1.8,2471.171,13.29,0.064,289.0
2022-12-04T05:52:03,42.805,6.029,-0.036,0.02,-0.014,102.0,102.0,101.0,13.3,1505.2,331.2,-0.8,1.8,2471.192,13.29,0.041,299.1
2022-12-04T05:55:03,42.805,6.029,-0.05,0.002,-0.034,101.0,103.0,102.0,13.3,1505.2,320.5,-0.8,1.8,2471.208,13.29,0.05,272.3
2022-12-04T05:58:03,42.805,6.029,-0.083,0.007,-0.03,102.0,102.0,101.0,13.4,1505.2,317.9,-0.8,1.8,2471.151,13.29,0.083,274.8
2022-12-04T06:04:03,42.805,6.029,-0.069,0.028,-0.051,102.0,101.0,101.0,13.4,1505.2,321.4,-0.8,1.8,2471.186,13.28,0.074,292.1
2022-12-04T06:07:03,42.805,6.029,-0.07,0.022,-0.047,102.0,101.0,101.0,13.4,1505.2,322.9,-0.8,1.8,2471.198,13.28,0.073,287.4
2022-12-04T06:10:03,42.805,6.029,-0.032,0.014,-0.052,102.0,102.0,101.0,13.4,1505.2,327.8,-0.8,1.8,2471.188,13.28,0.034,293.6
2022-12-04T06:13:03,42.805,6.029,-0.056,0.03,-0.01,102.0,101.0,101.0,13.4,1505.2,320.1,-0.8,1.8,2471.16,13.28,0.063,298.2
2022-12-04T06:16:03,42.805,6.029,-0.055,0.032,-0.024,101.0,102.0,101.0,13.4,1505.2,321.8,-0.8,1.8,2471.177,13.29,0.063,300.2
2022-12-04T06:19:03,42.805,6.029,-0.068,0.048,-0.037,103.0,101.0,101.0,13.3,1505.2,333.1,-0.8,1.8,2471.112,13.29,0.083,305.2
2022-12-04T06:22:03,42.805,6.029,-0.049,0.032,-0.07,102.0,102.0,101.0,13.4,1505.2,325.5,-0.7,1.8,2471.153,13.29,0.058,303.2
2022-12-04T06:25:03,42.805,6.029,-0.037,-0.006,-0.058,102.0,101.0,100.0,13.3,1505.2,328.0,-0.7,1.8,2471.119,13.29,0.037,260.8
2022-12-04T06:28:03,42.805,6.029,-0.064,0.017,-0.066,101.0,101.0,102.0,13.4,1505.2,319.4,-0.8,1.8,2471.126,13.29,0.066,284.9
2022-12-04T06:31:03,42.805,6.029,-0.06,0.012,-0.032,103.0,102.0,101.0,13.4,1505.2,320.7,-0.8,1.8,2471.084,13.29,0.061,281.3
2022-12-04T06:34:03,42.805,6.029,-0.051,0.004,-0.092,102.0,101.0,102.0,13.4,1505.2,318.7,-0.7,1.9,2471.128,13.29,0.051,274.5
2022-12-04T06:37:03,42.805,6.029,-0.048,0.023,-0.06,102.0,102.0,101.0,13.4,1505.2,334.1,-0.7,1.8,2471.156,13.29,0.053,295.6
2022-12-04T06:40:03,42.805,6.029,-0.08,0.034,-0.062,102.0,101.0,101.0,13.4,1505.2,325.3,-0.7,1.8,2471.129,13.29,0.086,293.0
2022-12-04T06:43:03,42.805,6.029,-0.033,0.02,-0.042,102.0,102.0,102.0,13.4,1505.2,331.5,-0.8,1.8,2471.14,13.29,0.038,301.2
2022-12-04T06:46:03,42.805,6.029,-0.088,0.037,-0.016,102.0,102.0,101.0,13.4,1505.2,317.7,-0.8,1.9,2471.157,13.29,0.095,292.8
2022-12-04T06:49:03,42.805,6.029,-0.04,0.032,-0.014,101.0,101.0,101.0,13.4,1505.2,335.1,-0.8,1.8,2471.131,13.29,0.051,308.7
2022-12-04T06:52:03,42.805,6.029,-0.044,-0.001,-0.053,102.0,102.0,101.0,13.4,1505.2,324.3,-0.8,1.8,2471.16,13.29,0.044,268.7
2022-12-04T06:55:03,42.805,6.029,-0.042,0.02,-0.071,102.0,101.0,100.0,13.4,1505.2,334.8,-0.8,1.8,2471.129,13.29,0.046,295.5
2022-12-04T06:58:03,42.805,6.029,-0.062,0.027,-0.021,102.0,101.0,101.0,13.4,1505.2,319.7,-0.8,1.8,2471.142,13.29,0.067,293.5
2022-12-04T07:04:03,42.805,6.029,-0.048,0.051,-0.036,102.0,103.0,102.0,13.4,1505.2,328.7,-0.8,1.8,2471.155,13.28,0.07,316.7
2022-12-04T07:07:03,42.805,6.029,-0.062,0.032,-0.034,102.0,102.0,102.0,13.3,1505.2,325.6,-0.7,1.8,2471.174,13.28,0.069,297.3
2022-12-04T07:10:03,42.805,6.029,-0.055,0.023,-0.041,102.0,101.0,101.0,13.3,1505.2,325.8,-0.8,1.8,2471.153,13.28,0.059,292.7
2022-12-04T07:13:03,42.805,6.029,-0.046,0.041,-0.01,101.0,101.0,101.0,13.4,1505.2,330.1,-0.7,1.8,2471.117,13.28,0.061,311.7
2022-12-04T07:16:03,42.805,6.029,-0.035,0.022,-0.02,101.0,102.0,102.0,13.3,1505.2,321.5,-0.8,1.8,2471.14,13.28,0.041,302.2
2022-12-04T07:19:03,42.805,6.029,-0.059,0.02,-0.046,100.0,103.0,101.0,13.4,1505.2,325.6,-0.8,1.8,2471.165,13.29,0.062,288.7
2022-12-04T07:22:03,42.805,6.029,-0.069,0.022,-0.057,101.0,101.0,101.0,13.4,1505.2,323.3,-0.8,1.8,2471.141,13.29,0.072,287.7
2022-12-04T07:25:03,42.805,6.029,-0.046,0.02,-0.025,101.0,102.0,101.0,13.4,1505.2,326.9,-0.8,1.8,2471.156,13.29,0.05,293.5
2022-12-04T07:28:03,42.805,6.029,-0.05,0.076,-0.014,103.0,102.0,99.0,13.4,1505.2,330.8,-0.8,1.8,2471.123,13.29,0.09,326.7
2022-12-04T07:31:03,42.805,6.029,-0.073,0.042,-0.057,102.0,101.0,100.0,13.4,1505.2,327.0,-0.8,1.8,2471.148,13.29,0.084,299.9
2022-12-04T07:34:03,42.805,6.029,-0.054,0.03,-0.034,102.0,102.0,101.0,13.3,1505.2,330.3,-0.8,1.8,2471.157,13.29,0.061,299.1
2022-12-04T07:37:03,42.805,6.029,-0.043,0.037,-0.009,103.0,103.0,99.0,13.3,1505.2,325.3,-0.8,1.8,2471.15,13.29,0.056,310.7
2022-12-04T07:40:03,42.805,6.029,-0.064,0.048,-0.021,102.0,101.0,100.0,13.4,1505.2,323.9,-0.7,1.8,2471.149,13.29,0.079,306.9
2022-12-04T07:43:03,42.805,6.029,-0.06,0.036,-0.022,102.0,102.0,100.0,13.3,1505.2,320.6,-0.8,1.8,2471.117,13.29,0.069,301.0
2022-12-04T07:46:03,42.805,6.029,-0.048,0.02,-0.035,102.0,100.0,101.0,13.4,1505.2,316.6,-0.8,1.8,2471.109,13.29,0.052,292.6
2022-12-04T07:49:03,42.805,6.029,-0.046,0.02,-0.043,102.0,102.0,100.0,13.3,1505.2,324.7,-0.8,1.8,2471.12,13.29,0.05,293.5
2022-12-04T07:52:03,42.805,6.029,-0.053,0.005,-0.049,101.0,102.0,100.0,13.3,1505.2,320.1,-0.7,1.8,2471.136,13.29,0.053,275.4
2022-12-04T07:55:03,42.805,6.029,-0.036,0.016,-0.038,101.0,101.0,102.0,13.4,1505.2,326.5,-0.7,1.8,2471.12,13.29,0.039,294.0
2022-12-04T07:58:03,42.805,6.029,-0.042,0.024,-0.044,102.0,100.0,101.0,13.4,1505.2,327.4,-0.8,1.8,2471.085,13.29,0.048,299.7
2022-12-04T08:04:03,42.805,6.029,-0.062,0.044,-0.029,101.0,101.0,101.0,13.3,1505.2,331.2,-0.8,1.8,2471.124,13.28,0.076,305.4
2022-12-04T08:07:03,42.805,6.029,-0.035,0.04,-0.058,101.0,102.0,100.0,13.4,1505.2,333.8,-0.8,1.8,2471.162,13.28,0.053,318.8
2022-12-04T08:10:03,42.805,6.029,-0.031,0.019,-0.031,103.0,100.0,100.0,13.3,1505.2,322.1,-0.7,1.8,2471.155,13.28,0.036,301.5
2022-12-04T08:13:03,42.805,6.029,-0.041,0.03,-0.045,101.0,102.0,100.0,13.3,1505.2,316.9,-0.8,1.8,2471.122,13.28,0.05,306.2
2022-12-04T08:16:03,42.805,6.029,-0.03,0.02,-0.039,102.0,100.0,100.0,13.4,1505.2,331.0,-0.7,1.8,2471.121,13.29,0.036,303.7
2022-12-04T08:19:03,42.805,6.029,-0.053,0.039,-0.061,100.0,101.0,102.0,13.4,1505.2,334.1,-0.7,1.8,2471.095,13.29,0.065,306.3
2022-12-04T08:22:03,42.805,6.029,-0.036,0.029,-0.053,101.0,100.0,101.0,13.3,1505.2,319.1,-0.8,1.8,2471.126,13.29,0.046,308.9
2022-12-04T08:25:03,42.805,6.029,-0.039,0.019,-0.044,101.0,101.0,100.0,13.4,1505.2,329.2,-0.8,1.8,2471.105,13.29,0.043,296.0
2022-12-04T08:28:03,42.805,6.029,-0.045,0.031,-0.042,101.0,101.0,100.0,13.4,1505.2,333.4,-0.8,1.8,2471.094,13.29,0.054,304.6
2022-12-04T08:31:03,42.805,6.029,-0.051,0.016,-0.053,101.0,101.0,101.0,13.4,1505.2,330.2,-0.7,1.8,2471.084,13.29,0.053,287.4
2022-12-04T08:34:03,42.805,6.029,-0.035,-0.005,-0.048,101.0,100.0,100.0,13.4,1505.2,318.7,-0.8,1.8,2471.108,13.29,0.035,261.9
2022-12-04T08:37:03,42.805,6.029,-0.038,0.007,-0.052,102.0,101.0,101.0,13.4,1505.2,321.8,-0.8,1.8,2471.093,13.29,0.038,280.4
2022-12-04T08:40:03,42.805,6.029,-0.055,0.044,-0.047,102.0,102.0,100.0,13.4,1505.2,335.9,-0.7,1.8,2471.147,13.29,0.07,308.7
2022-12-04T08:43:03,42.805,6.029,-0.031,0.0,-0.039,101.0,102.0,101.0,13.4,1505.2,326.5,-0.7,1.8,2471.113,13.29,0.03,270.0
2022-12-04T08:46:03,42.805,6.029,-0.058,0.027,-0.059,101.0,102.0,101.0,13.4,1505.2,325.4,-0.8,1.8,2471.095,13.29,0.063,295.0
2022-12-04T08:49:03,42.805,6.029,-0.038,0.009,-0.044,102.0,102.0,100.0,13.4,1505.2,330.3,-0.8,1.8,2471.093,13.29,0.039,283.3
2022-12-04T08:52:03,42.805,6.029,-0.041,0.013,-0.042,102.0,101.0,101.0,13.4,1505.2,327.6,-0.7,1.8,2471.093,13.29,0.043,287.6
2022-12-04T08:55:03,42.805,6.029,-0.026,0.054,-0.014,101.0,101.0,100.0,13.4,1505.2,335.6,-0.8,1.8,2471.091,13.29,0.059,334.3
2022-12-04T08:58:03,42.805,6.029,-0.037,0.016,-0.047,101.0,100.0,101.0,13.4,1505.2,319.1,-0.7,1.8,2471.075,13.29,0.04,293.4
2022-12-04T09:04:03,42.805,6.029,-0.049,0.026,-0.051,102.0,101.0,100.0,13.4,1505.2,328.3,-0.8,1.8,2471.074,13.28,0.055,297.9
2022-12-04T09:07:03,42.805,6.029,-0.056,0.031,-0.071,101.0,100.0,101.0,13.4,1505.2,335.9,-0.7,1.8,2471.128,13.28,0.064,299.0
2022-12-04T09:10:03,42.805,6.029,-0.044,0.022,-0.05,101.0,101.0,100.0,13.3,1505.2,330.6,-0.8,1.8,2471.15,13.28,0.049,296.6
2022-12-04T09:13:03,42.805,6.029,-0.037,0.012,-0.069,101.0,101.0,101.0,13.4,1505.2,333.7,-0.8,1.8,2471.066,13.28,0.038,288.0
2022-12-04T09:16:03,42.805,6.029,-0.031,0.043,-0.039,102.0,102.0,99.0,13.4,1505.2,327.2,-0.8,1.8,2471.102,13.29,0.053,324.2
2022-12-04T09:19:03,42.805,6.029,-0.043,0.009,-0.053,102.0,100.0,101.0,13.3,1505.2,323.7,-0.8,1.8,2471.065,13.29,0.043,281.8
2022-12-04T09:22:03,42.805,6.029,-0.028,0.013,-0.046,101.0,102.0,100.0,13.4,1505.2,328.1,-0.7,1.8,2471.108,13.29,0.03,294.9
2022-12-04T09:25:03,42.805,6.029,-0.034,0.016,-0.031,102.0,100.0,101.0,13.3,1505.2,321.5,-0.8,1.8,2471.105,13.29,0.037,295.2
2022-12-04T09:28:03,42.805,6.029,-0.042,0.037,-0.034,101.0,101.0,101.0,13.4,1505.2,322.8,-0.8,1.8,2471.105,13.29,0.055,311.4
2022-12-04T09:31:03,42.805,6.029,-0.036,0.026,-0.056,101.0,101.0,101.0,13.4,1505.2,336.2,-0.8,1.8,2471.118,13.29,0.044,305.8
2022-12-04T09:34:03,42.805,6.029,-0.044,0.022,-0.043,100.0,101.0,101.0,13.4,1505.2,322.0,-0.8,1.8,2471.085,13.29,0.049,296.6
2022-12-04T09:37:03,42.805,6.029,-0.043,0.018,-0.029,101.0,101.0,101.0,13.4,1505.2,330.1,-0.7,1.8,2471.073,13.29,0.046,292.7
2022-12-04T09:40:03,42.805,6.029,-0.04,0.013,-0.03,101.0,101.0,102.0,13.4,1505.2,316.9,-0.8,1.8,2471.069,13.29,0.042,288.0
2022-12-04T09:43:03,42.805,6.029,-0.041,0.04,-0.026,101.0,101.0,101.0,13.4,1505.2,328.0,-0.8,1.8,2471.083,13.29,0.057,314.3
2022-12-04T09:46:03,42.805,6.029,-0.048,0.006,-0.073,101.0,101.0,100.0,13.4,1505.2,315.4,-0.8,1.8,2471.116,13.29,0.048,277.1
2022-12-04T09:49:03,42.805,6.029,-0.045,0.04,-0.047,101.0,101.0,101.0,13.4,1505.2,330.1,-0.8,1.8,2471.068,13.29,0.06,311.6
2022-12-04T09:52:03,42.805,6.029,-0.048,0.039,-0.014,101.0,101.0,100.0,13.4,1505.2,323.2,-0.7,1.8,2471.139,13.29,0.061,309.1